SKYNET 5C

Last updated on Sat Aug 22 2026 00:02:56 GMT+0000 (Coordinated Universal Time)

1 33055U 08030A 26233.19355192 -.00000144 00000+0 00000+0 0 9996 2 33055 3.9499 76.2367 0004659 81.0541 224.1131 1.00271583 66605
UTC large
Height (km)
Speed (km/s)
/
Latitude / Longitude
Inclination (degrees)
Orbital Period (minutes)
Azimuth
Elevation
Range (km)
Doppler Factor

Next 0 passes for location: London (51.5072 / 0.1276)

No passes found over London.
SKYNET 5C